• Join FlightAware (Why Join?)
  • Login
  • US Flag 
12:14PM EDT


 

Airport Tracker/Info


-or-


 

Live Flight TrackerFlight Track Log ✈ SWA1521 ✈ 05-May-2013 ✈ KSEA - KSMF

Flight Track Log - Related Links

Times and Time Zones

All times are in EDT time to prevent confusion due to time zone crossing. See the SWA1521 flight status page for this flight to view local times or setup timezone preferences in your user account.

Time Position Orientation Groundspeed Altitude Reporting Facility
EDT Latitude Longitude Course Direction KTS MPH feet Rate Location/Type
09:30PM 47.4614 -122.3089 North 138 159 1,500  Level Seattle Center
09:31PM 47.4775 -122.3081 North 146 168 2,100 2,820 Climbing Seattle Center
09:32PM 47.5414 -122.3094 359° North 209 241 5,600 3,540 Climbing Seattle Center
09:33PM 47.6003 -122.2919 11° North 223 257 9,300 2,880 Climbing Seattle Center
09:34PM 47.5889 -122.2042 101° East 247 284 11,500 2,040 Climbing Seattle Center
09:35PM 47.4983 -122.1814 170° South 345 397 13,500 2,520 Climbing Seattle Center
09:36PM 47.3947 -122.1606 172° South 374 430 16,700 3,120 Climbing Seattle Center
09:37PM 47.2892 -122.1414 173° South 392 451 19,800 2,700 Climbing Seattle Center
09:38PM 47.1758 -122.1331 177° South 405 466 22,300 2,340 Climbing Seattle Center
09:39PM 47.0575 -122.1228 177° South 423 487 24,600 2,100 Climbing Seattle Center
09:40PM 46.9342 -122.1131 177° South 447 514 26,600 1,860 Climbing Seattle Center
09:41PM 46.8072 -122.1011 176° South 459 528 28,400 1,740 Climbing Seattle Center
09:42PM 46.6789 -122.0917 177° South 467 537 30,200 1,680 Climbing Seattle Center
09:43PM 46.5483 -122.0789 176° South 475 547 31,900 1,860 Climbing Seattle Center
09:44PM 46.3903 -122.0667 177° South 479 551 34,000 1,860 Climbing Seattle Center
09:45PM 46.2608 -122.0539 176° South 473 544 35,800 1,440 Climbing Seattle Center
09:46PM 46.1500 -122.0442 177° South 466 536 37,000 1,140 Climbing Seattle Center
09:47PM 46.0194 -122.0339 177° South 468 539 38,100 900 Climbing Seattle Center
09:48PM 45.8911 -122.0244 177° South 463 533 38,900 420 Climbing Seattle Center
09:49PM 45.7336 -122.0092 176° South 471 542 39,000  Climbing Seattle Center
09:50PM 45.6044 -121.9986 177° South 466 536 39,000  Level Seattle Center
09:51PM 45.4731 -121.9869 176° South 471 542 39,000  Level Seattle Center
09:52PM 45.3442 -121.9767 177° South 466 536 39,000  Level Seattle Center
09:53PM 45.2142 -121.9653 176° South 467 537 39,000  Level Seattle Center
09:54PM 45.0806 -121.9539 177° South 481 554 39,000  Level Seattle Center
09:55PM 44.9497 -121.9431 177° South 473 544 39,000  Level Seattle Center
09:56PM 44.8292 -121.9344 177° South 460 529 39,000  Level Seattle Center
09:57PM 44.7014 -121.9242 177° South 456 525 39,000  Level Seattle Center
09:58PM 44.5733 -121.9136 177° South 459 528 39,000  Level Seattle Center
09:59PM 44.4439 -121.9028 177° South 462 532 39,000  Level Seattle Center
10:00PM 44.2950 -121.8917 177° South 460 529 39,000  Level Seattle Center
10:01PM 44.1869 -121.8828 177° South 462 532 39,000  Level Seattle Center
10:02PM 44.0597 -121.8722 177° South 462 532 39,000  Level Seattle Center
10:03PM 43.9081 -121.8603 177° South 457 526 39,000  Level Seattle Center
10:04PM 43.7850 -121.8511 177° South 462 532 39,000  Level Seattle Center
10:05PM 43.6553 -121.8450 178° South 468 539 39,000  Level Seattle Center
10:06PM 43.5267 -121.8342 177° South 463 533 39,000  Level Seattle Center
10:07PM 43.3997 -121.8244 177° South 459 528 39,000  Level Seattle Center
10:08PM 43.2728 -121.8144 177° South 456 525 39,000  Level Seattle Center
10:09PM 43.1461 -121.8014 176° South 455 524 39,000  Level Seattle Center
10:10PM 43.0189 -121.7931 177° South 456 525 39,000  Level Seattle Center
10:11PM 42.8911 -121.7844 177° South 460 529 39,000  Level Seattle Center
10:12PM 42.7631 -121.7767 177° South 459 528 39,000  Level Seattle Center
10:13PM 42.6356 -121.7658 176° South 458 527 39,000  Level Seattle Center
10:14PM 42.5086 -121.7556 177° South 457 526 39,000  Level Seattle Center
10:15PM 42.3831 -121.7453 177° South 452 520 39,000  Level Seattle Center
10:16PM 42.2556 -121.7361 177° South 455 524 39,000  Level Seattle Center
10:17PM 42.1267 -121.7269 177° South 456 525 39,000  Level Seattle Center
10:18PM 41.9956 -121.7286 181° South 461 531 39,000  Level Seattle Center
10:19PM 41.8656 -121.7272 180° South 460 529 39,000  Level Seattle Center
10:20PM 41.7353 -121.7264 180° South 463 533 39,000  Level Seattle Center
10:21PM 41.6058 -121.7256 180° South 463 533 39,000  Level Seattle Center
10:22PM 41.4772 -121.7247 180° South 462 532 39,000  Level Seattle Center
10:23PM 41.3483 -121.7242 180° South 462 532 39,000  Level Seattle Center
10:24PM 41.1958 -121.7231 180° South 459 528 39,000  Level Seattle Center
10:25PM 41.0689 -121.7233 180° South 457 526 39,000  Level Seattle Center
10:26PM 40.9425 -121.7222 180° South 454 522 39,000 -300 Level Seattle Center
10:27PM 40.8158 -121.7197 179° South 452 520 38,500 -1,740 Descending Seattle Center
10:28PM 40.6872 -121.7189 180° South 456 525 35,500 -2,460 Descending Seattle Center
10:29PM 40.5619 -121.7203 180° South 454 522 33,600 -1,920 Descending Seattle Center
10:31PM 40.4292 -121.7189 180° South 398 458 31,400 -2,160 Descending Oakland Center
10:32PM 40.3214 -121.7089 176° South 388 447 28,900 -2,340 Descending Oakland Center
10:33PM 40.2158 -121.6994 176° South 381 438 26,700 -2,160 Descending Oakland Center
10:34PM 40.1133 -121.6908 176° South 370 426 24,600 -2,040 Descending Oakland Center
10:35PM 40.0122 -121.6822 176° South 364 419 22,600 -2,040 Descending Oakland Center
10:36PM 39.9147 -121.6742 176° South 353 406 20,500 -2,040 Descending Oakland Center
10:37PM 39.8172 -121.6656 176° South 350 403 18,500 -2,040 Descending Oakland Center
10:38PM 39.7242 -121.6572 176° South 341 392 16,400 -1,980 Descending Oakland Center
10:39PM 39.6347 -121.6508 177° South 327 376 14,600 -1,860 Descending Oakland Center
10:40PM 39.5500 -121.6425 176° South 312 359 12,700 -1,320 Descending Oakland Center
10:41PM 39.4694 -121.6367 177° South 295 339 12,000 -900 Descending Oakland Center
10:42PM 39.3969 -121.6314 177° South 269 310 10,900 -1,140 Descending Oakland Center
10:43PM 39.3153 -121.6242 176° South 284 327 9,700 -1,440 Descending Oakland Center
10:44PM 39.2239 -121.6167 176° South 280 322 8,000 -1,620 Descending Oakland Center
10:45PM 39.1519 -121.6103 176° South 270 311 6,500 -1,440 Descending Oakland Center
10:45PM 39.1167 -121.6000 167° South 258 297 5,800 -900 Descending Northern Cal TRACON
10:46PM 39.0333 -121.6000 180° South 255 293 5,000 -720 Descending Northern Cal TRACON
10:47PM 38.9667 -121.6000 180° South 267 307 4,400 -900 Descending Northern Cal TRACON
10:48PM 38.8833 -121.6000 180° South 255 293 3,300 -840 Descending Northern Cal TRACON
10:49PM 38.8333 -121.6000 180° South 189 217 2,800 -900 Descending Northern Cal TRACON
10:50PM 38.8000 -121.6000 180° South 154 177 1,700 -1,020 Descending Northern Cal TRACON
10:51PM 38.7500 -121.6000 180° South 144 166 900 -780 Descending Northern Cal TRACON
10:52PM 38.7167 -121.6000 180° South 141 162 200 -720 Descending Northern Cal TRACON
10:55PM 38.6954 -121.5908 180° South  Level Estimated
11:02PM 38.6954 -121.5908 180° South  Level Estimated